Location: Newark
(36.4904°N, 5.5399°E)
Time: 03:19:58
(UTC+00:00)

Starlink (trailer) - Visible Passes

Search period start: 18 July 2019 00:00
Search period end: 28 July 2019 00:00
Orbit: 548 x 551 km, 53.0° (Epoch: 16 July)

Date Brightness Start Highest point End Pass type
(mag) Time Alt. Az. Time Alt. Az. Time Alt. Az.
18 Jul 5.6 01:01:01 25° ENE 01:01:01 25° ENE 01:02:53 10° NE visible
18 Jul 5.7 02:36:39 15° WNW 02:38:41 20° NNW 02:41:48 10° NNE visible
19 Jul 5.6 00:55:34 26° NE 00:55:34 26° NE 00:57:29 10° NE visible
19 Jul 6.0 02:31:12 12° WNW 02:33:27 17° NNW 02:36:09 10° NNE visible
20 Jul 5.7 00:50:05 26° NNE 00:50:05 26° NNE 00:52:03 10° NE visible
20 Jul 6.2 02:26:01 10° NW 02:28:14 14° NNW 02:30:27 10° N visible
21 Jul 5.8 00:44:33 25° NNE 00:44:33 25° NNE 00:46:33 10° NE visible
21 Jul 6.4 02:21:27 10° NW 02:23:03 12° NNW 02:24:39 10° N visible
22 Jul 5.9 00:38:58 23° N 00:38:58 23° N 00:41:01 10° NNE visible
22 Jul 6.6 02:17:14 10° NNW 02:17:53 10° NNW 02:18:33 10° N visible
23 Jul 6.0 00:33:20 21° N 00:33:20 21° N 00:35:26 10° NNE visible
24 Jul 6.2 00:27:40 19° N 00:27:40 19° N 00:29:50 10° NNE visible
25 Jul 6.3 00:21:54 17° NNW 00:21:54 17° NNW 00:24:10 10° NNE visible
25 Jul 6.7 03:42:23 10° N 03:43:48 11° NNE 03:45:14 10° NE visible
26 Jul 6.5 00:16:02 14° NNW 00:16:10 14° NNW 00:18:28 10° NNE visible
26 Jul 6.6 03:36:32 10° N 03:38:37 13° NNE 03:40:41 10° NE visible
26 Jul 6.6 22:34:24 11° NE 22:34:24 11° NE 22:34:31 10° NE visible
27 Jul 6.6 00:10:01 11° NNW 00:10:58 12° NNW 00:12:41 10° N visible
27 Jul 6.6 03:30:48 10° NNW 03:33:24 16° NNE 03:35:59 10° ENE visible
27 Jul 6.3 22:28:05 15° NNE 22:28:05 15° NNE 22:28:58 10° NNE visible
